When you browse on this site, cookies collect data to enhance your experience and personalize the content and advertising you see.
Visit our Privacy Policy to learn more. By continuing to use the site, you agree to this use of cookies and data.
  • In United Kingdom
  • List of Countries
  • For 7 days
  • Water Temperature
  • Weather Map
  • Weather Widgets
  • user-avatar
    Login

    Hourly Weather Santa Cruz

    Today, 18 January, Saturday

    Time Temperature Precipitation Wind Pressure Humidity
    00:00 +25°C° 0 mm 1 mps 724 mmHg 81%
    01:00 +25°C° 0 mm 1 mps 724 mmHg 83%
    02:00 +25°C° 0 mm 1 mps 724 mmHg 84%
    03:00 +25°C° 0 mm 1 mps 724 mmHg 85%
    04:00 +24°C° 0 mm 1 mps 724 mmHg 87%
    05:00 +24°C° 0 mm 1 mps 723 mmHg 88%
    06:00 +25°C° 0 mm 1 mps 724 mmHg 82%
    07:00 +26°C° 0 mm 1 mps 724 mmHg 77%
    08:00 +28°C° 0 mm 1 mps 725 mmHg 72%
    09:00 +30°C° 0 mm 2 mps 725 mmHg 65%
    10:00 +32°C° 0 mm 2 mps 725 mmHg 57%
    11:00 +35°C° 0 mm 2 mps 725 mmHg 50%
    12:00 +36°C° 0 mm 2 mps 724 mmHg 46%
    13:00 +37°C° 0 mm 3 mps 723 mmHg 41%
    14:00 +38°C° 0 mm 3 mps 723 mmHg 36%
    15:00 +38°C° 0 mm 3 mps 722 mmHg 37%
    16:00 +38°C° 0 mm 3 mps 721 mmHg 37%
    17:00 +38°C° 0 mm 4 mps 721 mmHg 38%
    18:00 +35°C° 0 mm 3 mps 721 mmHg 45%
    19:00 +32°C° 0 mm 2 mps 721 mmHg 52%
    20:00 +30°C° 0 mm 2 mps 721 mmHg 59%
    21:00 +29°C° 0 mm 1 mps 722 mmHg 63%
    22:00 +28°C° 0 mm 1 mps 722 mmHg 66%
    23:00 +28°C° 0 mm 1 mps 723 mmHg 70%

    Tomorrow, 19 January, Sunday

    Time Temperature Precipitation Wind Pressure Humidity
    00:00 +27°C° 0 mm 1 mps 722 mmHg 72%
    01:00 +27°C° 0 mm 1 mps 722 mmHg 74%
    02:00 +26°C° 0 mm 1 mps 722 mmHg 76%
    03:00 +26°C° 0 mm 1 mps 722 mmHg 77%
    04:00 +26°C° 0 mm 1 mps 722 mmHg 78%
    05:00 +26°C° 0 mm 1 mps 722 mmHg 79%
    06:00 +27°C° 0 mm 2 mps 722 mmHg 74%
    07:00 +28°C° 0 mm 2 mps 723 mmHg 69%
    08:00 +30°C° 0 mm 2 mps 723 mmHg 64%
    09:00 +33°C° 0 mm 3 mps 723 mmHg 57%
    10:00 +35°C° 0 mm 3 mps 723 mmHg 49%
    11:00 +37°C° 0 mm 4 mps 723 mmHg 42%
    12:00 +38°C° 0 mm 4 mps 722 mmHg 38%
    13:00 +40°C° 0 mm 4 mps 722 mmHg 35%
    14:00 +41°C° 0 mm 4 mps 721 mmHg 31%
    15:00 +41°C° 0 mm 4 mps 720 mmHg 32%
    16:00 +40°C° 0 mm 4 mps 720 mmHg 33%
    17:00 +40°C° 0 mm 4 mps 719 mmHg 33%
    18:00 +37°C° 0 mm 3 mps 719 mmHg 40%
    19:00 +34°C° 0 mm 2 mps 720 mmHg 47%
    20:00 +31°C° 0 mm 2 mps 720 mmHg 53%
    21:00 +30°C° 0 mm 2 mps 720 mmHg 59%
    22:00 +29°C° 0 mm 2 mps 721 mmHg 65%
    23:00 +28°C° 0 mm 2 mps 721 mmHg 71%

    Day after tomorrow, 20 January, Monday

    Time Temperature Precipitation Wind Pressure Humidity
    00:00 +27°C° 0 mm 2 mps 721 mmHg 74%
    01:00 +27°C° 0 mm 2 mps 721 mmHg 77%
    02:00 +26°C° 0 mm 2 mps 720 mmHg 80%
    03:00 +26°C° 0 mm 2 mps 720 mmHg 82%
    04:00 +26°C° 0 mm 2 mps 720 mmHg 84%
    05:00 +25°C° 0 mm 2 mps 720 mmHg 85%
    06:00 +27°C° 0 mm 2 mps 721 mmHg 80%
    07:00 +28°C° 0 mm 2 mps 721 mmHg 76%
    08:00 +29°C° 0 mm 3 mps 722 mmHg 71%
    09:00 +33°C° 0 mm 3 mps 722 mmHg 62%
    10:00 +35°C° 0 mm 4 mps 722 mmHg 53%
    11:00 +37°C° 0 mm 4 mps 722 mmHg 44%
    12:00 +38°C° 0 mm 4 mps 721 mmHg 41%
    13:00 +40°C° 0 mm 5 mps 720 mmHg 39%
    14:00 +41°C° 0 mm 5 mps 720 mmHg 36%
    15:00 +40°C° 0 mm 5 mps 719 mmHg 38%
    16:00 +39°C° 0 mm 5 mps 718 mmHg 40%
    17:00 +37°C° 0 mm 5 mps 718 mmHg 42%
    18:00 +35°C° 0 mm 4 mps 718 mmHg 48%
    19:00 +33°C° 0 mm 3 mps 718 mmHg 55%
    20:00 +31°C° 0 mm 2 mps 719 mmHg 61%
    21:00 +30°C° 0 mm 2 mps 719 mmHg 65%
    22:00 +29°C° 0 mm 2 mps 719 mmHg 69%
    23:00 +28°C° 0 mm 2 mps 720 mmHg 72%

    21 January, Tuesday

    Time Temperature Precipitation Wind Pressure Humidity
    00:00 +28°C° 0.1 mm 2 mps 719 mmHg 74%
    01:00 +27°C° 0.1 mm 3 mps 719 mmHg 76%
    02:00 +27°C° 0.1 mm 4 mps 719 mmHg 78%
    03:00 +27°C° 0 mm 4 mps 719 mmHg 81%
    04:00 +26°C° 0 mm 4 mps 719 mmHg 84%
    05:00 +26°C° 0 mm 4 mps 719 mmHg 87%
    06:00 +27°C° 0 mm 4 mps 719 mmHg 82%
    07:00 +28°C° 0 mm 5 mps 720 mmHg 77%
    08:00 +30°C° 0 mm 5 mps 720 mmHg 72%
    09:00 +33°C° 0 mm 5 mps 720 mmHg 63%
    10:00 +35°C° 0 mm 6 mps 720 mmHg 54%
    11:00 +38°C° 0 mm 6 mps 720 mmHg 45%
    12:00 +39°C° 0 mm 6 mps 719 mmHg 43%
    13:00 +40°C° 0 mm 6 mps 718 mmHg 40%
    14:00 +40°C° 0 mm 7 mps 717 mmHg 37%
    15:00 +39°C° 0 mm 6 mps 716 mmHg 39%
    16:00 +39°C° 0 mm 6 mps 716 mmHg 41%
    17:00 +38°C° 0 mm 6 mps 715 mmHg 43%
    18:00 +35°C° 0 mm 5 mps 715 mmHg 49%
    19:00 +34°C° 0 mm 4 mps 716 mmHg 55%
    20:00 +32°C° 0 mm 4 mps 716 mmHg 60%
    21:00 +32°C° 0 mm 4 mps 717 mmHg 62%
    22:00 +31°C° 0 mm 3 mps 718 mmHg 64%
    23:00 +30°C° 0 mm 3 mps 718 mmHg 65%

    22 January, Wednesday

    Time Temperature Precipitation Wind Pressure Humidity
    00:00 +29°C° 0.1 mm 4 mps 718 mmHg 71%
    01:00 +28°C° 0.1 mm 4 mps 718 mmHg 76%
    02:00 +28°C° 0.1 mm 4 mps 718 mmHg 81%
    03:00 +27°C° 1.9 mm 3 mps 718 mmHg 85%
    04:00 +26°C° 1.9 mm 3 mps 718 mmHg 89%
    05:00 +25°C° 1.9 mm 2 mps 719 mmHg 93%
    06:00 +26°C° 0.2 mm 3 mps 719 mmHg 90%
    07:00 +26°C° 0.2 mm 3 mps 720 mmHg 86%
    08:00 +27°C° 0.2 mm 3 mps 721 mmHg 83%
    09:00 +29°C° 0.1 mm 3 mps 721 mmHg 72%
    10:00 +32°C° 0.1 mm 4 mps 721 mmHg 62%
    11:00 +35°C° 0.1 mm 4 mps 721 mmHg 51%
    12:00 +34°C° 0.5 mm 3 mps 721 mmHg 56%
    13:00 +33°C° 0.5 mm 3 mps 720 mmHg 60%
    14:00 +31°C° 0.5 mm 3 mps 719 mmHg 65%
    15:00 +33°C° 0.2 mm 3 mps 719 mmHg 60%
    16:00 +34°C° 0.2 mm 3 mps 718 mmHg 55%
    17:00 +35°C° 0.2 mm 3 mps 717 mmHg 51%
    18:00 +33°C° 0 mm 3 mps 718 mmHg 59%
    19:00 +30°C° 0 mm 3 mps 718 mmHg 67%
    20:00 +28°C° 0 mm 3 mps 718 mmHg 75%
    21:00 +28°C° 0 mm 2 mps 719 mmHg 75%
    22:00 +27°C° 0 mm 2 mps 719 mmHg 75%
    23:00 +27°C° 0 mm 2 mps 720 mmHg 75%

    23 January, Thursday

    Time Temperature Precipitation Wind Pressure Humidity
    00:00 +27°C° 0 mm 1 mps 720 mmHg 71%
    01:00 +27°C° 0 mm 1 mps 719 mmHg 68%
    02:00 +27°C° 0 mm 1 mps 719 mmHg 65%
    03:00 +27°C° 0 mm 1 mps 719 mmHg 64%
    04:00 +27°C° 0 mm 1 mps 719 mmHg 63%
    05:00 +27°C° 0 mm 1 mps 719 mmHg 62%
    06:00 +28°C° 0 mm 2 mps 720 mmHg 60%
    07:00 +29°C° 0 mm 3 mps 720 mmHg 57%
    08:00 +30°C° 0 mm 4 mps 721 mmHg 54%
    09:00 +33°C° 0 mm 4 mps 721 mmHg 50%
    10:00 +35°C° 0 mm 4 mps 721 mmHg 45%
    11:00 +37°C° 0 mm 4 mps 721 mmHg 40%
    12:00 +37°C° 0 mm 4 mps 720 mmHg 38%
    13:00 +38°C° 0 mm 3 mps 719 mmHg 35%
    14:00 +39°C° 0 mm 3 mps 719 mmHg 32%
    15:00 +38°C° 0 mm 3 mps 718 mmHg 34%
    16:00 +38°C° 0 mm 2 mps 717 mmHg 36%
    17:00 +37°C° 0 mm 2 mps 717 mmHg 38%
    18:00 +35°C° 0 mm 2 mps 717 mmHg 45%
    19:00 +34°C° 0 mm 2 mps 717 mmHg 52%
    20:00 +31°C° 0 mm 2 mps 718 mmHg 60%
    21:00 +30°C° 0 mm 2 mps 718 mmHg 63%
    22:00 +29°C° 0 mm 2 mps 719 mmHg 66%
    23:00 +28°C° 0 mm 2 mps 719 mmHg 70%
    Show more